Location: *
(38.3914°N, 75.0697°W)
Time: 16:52:39
(UTC+00:00)

Cosmos 1943 Rocket - Pass Details

Date: 17 February 2020
Orbit: 814 x 842 km, 71.0° (Epoch: 30 March)

Event Time Altitude Azimuth Distance (km) Brightness Sun altitude
Rises 11:19:28 0° 324° (NW) 3,343 4.9 -6.5°
Reaches altitude 10° 11:22:14 10° 312° (NW) 2,407 4.1 -5.9°
Maximum altitude 11:26:42 26° 258° (WSW) 1,553 3.1 -5.1°
Drops below altitude 10° 11:31:10 10° 203° (SSW) 2,397 4.5 -4.2°
Sets 11:33:56 0° 191° (S) 3,327 5.3 -3.7°
